SAS49H ESGG-EKCH

Flight info

Callsign SAS49H
Flight time 0h 35m
Altitude 19000
Route TOPLA L996 ERNOV
Aircraft A320/M-SDE3FGHIRWY/LB1

Departure

Time 2026-05-04 14:26
Airport Göteborg Landvetter Airport (ESGG)

Arrival

Time 2026-05-04 15:02
Airport Copenhagen Kastrup Airport (EKCH)
Time Latitude Longitude Altitude Speed Heading
2026-05-04 14:07 57.66887 12.29426 516 ft 0 kts 116°
2026-05-04 14:19 57.66888 12.29420 516 ft 1 kts 116°
2026-05-04 14:19 57.66892 12.29405 516 ft 1 kts 116°
2026-05-04 14:19 57.66897 12.29388 516 ft 2 kts 116°
2026-05-04 14:19 57.66903 12.29365 516 ft 2 kts 116°
2026-05-04 14:20 57.66909 12.29342 516 ft 2 kts 116°
2026-05-04 14:20 57.66915 12.29322 516 ft 2 kts 141°
2026-05-04 14:20 57.66926 12.29308 516 ft 2 kts 184°
2026-05-04 14:21 57.66931 12.29308 516 ft 0 kts 204°
2026-05-04 14:23 57.66827 12.29213 516 ft 17 kts 206°
2026-05-04 14:23 57.66785 12.29055 516 ft 17 kts 294°
2026-05-04 14:23 57.66851 12.28868 513 ft 18 kts 335°
2026-05-04 14:24 57.66962 12.28940 514 ft 18 kts 22°
2026-05-04 14:24 57.67076 12.29048 514 ft 19 kts 24°
2026-05-04 14:24 57.67202 12.29160 514 ft 21 kts 27°
2026-05-04 14:24 57.67339 12.29286 515 ft 23 kts 25°
2026-05-04 14:25 57.67458 12.29275 515 ft 19 kts 285°
2026-05-04 14:25 57.67430 12.29024 515 ft 0 kts 207°
2026-05-04 14:25 57.67325 12.28927 515 ft 49 kts 205°
2026-05-04 14:26 57.66820 12.28472 513 ft 109 kts 206°
2026-05-04 14:26 57.65988 12.27707 521 ft 154 kts 213°
2026-05-04 14:26 57.65012 12.26834 1025 ft 159 kts 212°
2026-05-04 14:26 57.64003 12.25885 1686 ft 168 kts 211°
2026-05-04 14:27 57.62917 12.24891 2287 ft 178 kts 212°
2026-05-04 14:27 57.61770 12.23848 2890 ft 188 kts 212°
2026-05-04 14:27 57.60470 12.23092 3489 ft 206 kts 195°
2026-05-04 14:27 57.58992 12.22786 4083 ft 222 kts 190°
2026-05-04 14:28 57.57382 12.22595 4707 ft 242 kts 189°
2026-05-04 14:28 57.55632 12.22456 5299 ft 263 kts 183°
2026-05-04 14:28 57.53768 12.22978 5896 ft 275 kts 175°
2026-05-04 14:28 57.51868 12.23574 6496 ft 278 kts 176°
2026-05-04 14:29 57.48005 12.24679 7757 ft 283 kts 177°
2026-05-04 14:29 57.44089 12.25735 9062 ft 286 kts 178°
2026-05-04 14:30 57.42108 12.26257 9730 ft 289 kts 178°
2026-05-04 14:30 57.40125 12.26784 10347 ft 295 kts 178°
2026-05-04 14:30 57.35917 12.27899 11604 ft 311 kts 179°
2026-05-04 14:31 57.33779 12.28468 12253 ft 318 kts 179°
2026-05-04 14:31 57.29323 12.29657 13612 ft 329 kts 179°
2026-05-04 14:32 57.24699 12.30909 14831 ft 338 kts 178°
2026-05-04 14:32 57.22393 12.31530 15453 ft 341 kts 179°
2026-05-04 14:32 57.20037 12.32162 16093 ft 344 kts 179°
2026-05-04 14:32 57.17651 12.32799 16750 ft 347 kts 179°
2026-05-04 14:33 57.15257 12.33440 17411 ft 349 kts 179°
2026-05-04 14:33 57.12846 12.34085 18088 ft 351 kts 179°
2026-05-04 14:33 57.10417 12.34714 18648 ft 355 kts 179°
2026-05-04 14:33 57.07922 12.35325 18834 ft 368 kts 179°
2026-05-04 14:34 57.05383 12.35940 18894 ft 368 kts 179°
2026-05-04 14:34 57.02845 12.36563 18887 ft 367 kts 179°
2026-05-04 14:34 57.00320 12.37183 18882 ft 366 kts 179°
2026-05-04 14:34 56.97792 12.37808 18888 ft 366 kts 179°
2026-05-04 14:35 56.95270 12.38433 18894 ft 366 kts 179°
2026-05-04 14:35 56.92746 12.39056 18898 ft 366 kts 179°
2026-05-04 14:35 56.90225 12.39678 18909 ft 366 kts 179°
2026-05-04 14:35 56.87708 12.40301 18906 ft 365 kts 179°
2026-05-04 14:36 56.85189 12.40924 18908 ft 366 kts 179°
2026-05-04 14:36 56.82685 12.41544 18675 ft 360 kts 179°
2026-05-04 14:36 56.80126 12.42162 18430 ft 387 kts 179°
2026-05-04 14:36 56.77397 12.42809 18163 ft 399 kts 178°
2026-05-04 14:37 56.74635 12.43478 17864 ft 401 kts 178°
2026-05-04 14:37 56.71877 12.44156 17569 ft 400 kts 178°
2026-05-04 14:37 56.69127 12.44836 17265 ft 398 kts 178°
2026-05-04 14:37 56.66389 12.45514 16966 ft 396 kts 178°
2026-05-04 14:38 56.63665 12.46185 16681 ft 394 kts 178°
2026-05-04 14:38 56.60952 12.46842 16392 ft 392 kts 178°
2026-05-04 14:38 56.58253 12.47490 16106 ft 391 kts 178°
2026-05-04 14:38 56.55563 12.48140 15821 ft 389 kts 178°
2026-05-04 14:39 56.52885 12.48788 15541 ft 388 kts 178°
2026-05-04 14:39 56.50216 12.49434 15262 ft 386 kts 178°
2026-05-04 14:39 56.48420 12.49869 15070 ft 385 kts 178°
2026-05-04 14:40 56.43161 12.51136 14536 ft 382 kts 178°
2026-05-04 14:40 56.40532 12.51768 14269 ft 380 kts 178°
2026-05-04 14:40 56.37917 12.52393 14003 ft 379 kts 178°
2026-05-04 14:40 56.35306 12.53019 13738 ft 378 kts 178°
2026-05-04 14:41 56.32710 12.53637 13446 ft 376 kts 178°
2026-05-04 14:41 56.30121 12.54248 13151 ft 374 kts 178°
2026-05-04 14:41 56.24977 12.55471 12557 ft 371 kts 178°
2026-05-04 14:42 56.19881 12.57010 11967 ft 367 kts 167°
2026-05-04 14:42 56.17498 12.58471 11639 ft 357 kts 166°
2026-05-04 14:42 56.15175 12.59899 11260 ft 350 kts 166°
2026-05-04 14:43 56.12922 12.61294 10886 ft 344 kts 166°
2026-05-04 14:43 56.10646 12.62706 10515 ft 339 kts 166°
2026-05-04 14:43 56.08430 12.64079 10140 ft 335 kts 166°
2026-05-04 14:43 56.06271 12.65411 9776 ft 330 kts 166°
2026-05-04 14:44 56.04092 12.66754 9371 ft 323 kts 166°
2026-05-04 14:44 56.02020 12.68032 8975 ft 308 kts 166°
2026-05-04 14:44 56.00022 12.69258 8578 ft 300 kts 166°
2026-05-04 14:44 55.98071 12.70443 8186 ft 293 kts 166°
2026-05-04 14:45 55.96171 12.71599 7746 ft 284 kts 166°
2026-05-04 14:45 55.94318 12.72731 7316 ft 280 kts 166°
2026-05-04 14:45 55.92483 12.73853 6890 ft 277 kts 166°
2026-05-04 14:45 55.90685 12.74953 6481 ft 270 kts 166°
2026-05-04 14:46 55.88926 12.76031 6055 ft 264 kts 166°
2026-05-04 14:46 55.87196 12.77087 5611 ft 262 kts 166°
2026-05-04 14:46 55.85474 12.78127 5174 ft 261 kts 166°
2026-05-04 14:46 55.83763 12.79152 4745 ft 257 kts 166°
2026-05-04 14:47 55.82084 12.80149 4301 ft 251 kts 166°
2026-05-04 14:47 55.80461 12.81095 3866 ft 246 kts 166°
2026-05-04 14:47 55.78846 12.82008 3439 ft 241 kts 166°
2026-05-04 14:47 55.77256 12.82882 3040 ft 235 kts 166°
2026-05-04 14:48 55.75752 12.83641 2996 ft 214 kts 176°
2026-05-04 14:48 55.74340 12.83648 3006 ft 197 kts 194°
2026-05-04 14:48 55.73086 12.82915 2795 ft 186 kts 213°
2026-05-04 14:48 55.72068 12.81587 2574 ft 180 kts 226°
2026-05-04 14:49 55.71132 12.80126 2338 ft 179 kts 226°
2026-05-04 14:49 55.70214 12.78695 2092 ft 172 kts 226°
2026-05-04 14:49 55.69345 12.77343 1869 ft 161 kts 225°
2026-05-04 14:49 55.68532 12.76080 1679 ft 145 kts 226°
2026-05-04 14:50 55.67791 12.74926 1469 ft 139 kts 227°
2026-05-04 14:50 55.67077 12.73813 1280 ft 136 kts 227°
2026-05-04 14:50 55.66372 12.72714 1093 ft 135 kts 226°
2026-05-04 14:50 55.65667 12.71617 899 ft 136 kts 226°
2026-05-04 14:51 55.64969 12.70534 699 ft 132 kts 227°
2026-05-04 14:51 55.64275 12.69455 520 ft 133 kts 227°
2026-05-04 14:51 55.63580 12.68375 334 ft 133 kts 226°
2026-05-04 14:51 55.62883 12.67294 160 ft 133 kts 226°
2026-05-04 14:52 55.62191 12.66216 59 ft 129 kts 228°
2026-05-04 14:52 55.61498 12.65128 183 ft 143 kts 226°
2026-05-04 14:52 55.60666 12.63846 629 ft 170 kts 225°
2026-05-04 14:52 55.59713 12.62299 1208 ft 203 kts 225°
2026-05-04 14:53 55.58383 12.60941 1715 ft 245 kts 198°
2026-05-04 14:53 55.56633 12.60748 2240 ft 260 kts 172°
2026-05-04 14:53 55.54972 12.62089 2760 ft 270 kts 142°
2026-05-04 14:53 55.53788 12.64707 2971 ft 277 kts 115°
2026-05-04 14:54 55.53399 12.67998 3005 ft 276 kts 85°
2026-05-04 14:54 55.53910 12.71209 3012 ft 271 kts 56°
2026-05-04 14:54 55.55141 12.73669 3011 ft 267 kts 37°
2026-05-04 14:54 55.56562 12.75781 3008 ft 267 kts 35°
2026-05-04 14:55 55.57996 12.77852 3009 ft 266 kts 36°
2026-05-04 14:55 55.59442 12.79923 3010 ft 268 kts 35°
2026-05-04 14:55 55.60884 12.82006 3011 ft 267 kts 36°
2026-05-04 14:55 55.62326 12.84082 3009 ft 267 kts 35°
2026-05-04 14:56 55.63771 12.86162 3010 ft 268 kts 35°
2026-05-04 14:56 55.65217 12.88248 3008 ft 268 kts 35°
2026-05-04 14:56 55.66638 12.90298 2854 ft 259 kts 36°
2026-05-04 14:56 55.68033 12.92186 2514 ft 244 kts 24°
2026-05-04 14:57 55.69580 12.92855 2190 ft 222 kts 351°
2026-05-04 14:57 55.70930 12.91946 2003 ft 199 kts 315°
2026-05-04 14:57 55.71650 12.89956 2006 ft 192 kts 290°
2026-05-04 14:57 55.72061 12.87703 2006 ft 191 kts 286°
2026-05-04 14:58 55.72357 12.85484 2021 ft 178 kts 275°
2026-05-04 14:58 55.72265 12.83343 2019 ft 174 kts 257°
2026-05-04 14:58 55.71770 12.81384 2003 ft 176 kts 239°
2026-05-04 14:58 55.70923 12.79800 2004 ft 178 kts 226°
2026-05-04 14:59 55.69994 12.78352 1945 ft 175 kts 226°
2026-05-04 14:59 55.69117 12.76990 1779 ft 162 kts 226°
2026-05-04 14:59 55.67502 12.74475 1398 ft 144 kts 226°
2026-05-04 15:00 55.66771 12.73338 1196 ft 136 kts 227°
2026-05-04 15:00 55.66067 12.72242 1004 ft 134 kts 226°
2026-05-04 15:00 55.65363 12.71146 814 ft 134 kts 226°
2026-05-04 15:01 55.63975 12.68989 436 ft 133 kts 227°
2026-05-04 15:01 55.63276 12.67908 252 ft 134 kts 226°
2026-05-04 15:01 55.62577 12.66822 88 ft 134 kts 226°
2026-05-04 15:01 55.61944 12.65818 24 ft 85 kts 219°
2026-05-04 15:02 55.61681 12.65417 25 ft 42 kts 221°
2026-05-04 15:02 55.61605 12.65160 23 ft 14 kts 276°